Location: Las Vegas
(36.1750°N, 115.1360°W)
Time: 23:20:18
(UTC-07:00)

Amateur Radio Satellites - All Passes

Search period start: 23 March 2017 22:50
Search period end: 24 March 2017 22:50
Location: Las Vegas, 36.1750°N, 115.1360°W

Satellite Date Start Highest point End Downlink Frequencies (MHz)
Time Altitude Azimuth
DELFI C3 23 Mar 22:50:48 22:52:19 12° 268° (W) 22:53:50 145.870
AO-85 23 Mar 22:52:31 22:55:18 16° 310° (NW) 22:58:00 145.980
AIST 2D 23 Mar 23:06:26 23:08:09 13° 93° (E) 23:09:53 435.315
EO-79 23 Mar 23:18:03 23:19:31 12° 92° (E) 23:20:58 145.935-145.965
SPROUT 23 Mar 23:24:27 23:27:36 20° 69° (ENE) 23:30:45 437.525
50 SAT 23 Mar 23:25:39 23:26:44 11° 67° (ENE) 23:27:48 437.505
TIGRISAT 23 Mar 23:35:24 23:39:13 29° 290° (WNW) 23:42:59 435.000
DX 1 23 Mar 23:41:06 23:43:36 15° 66° (ENE) 23:46:06 434.975-435.025
POLYITAN 1 23 Mar 23:43:29 23:46:56 24° 96° (E) 23:50:21 437.675
UNISAT 6 23 Mar 23:44:59 23:48:22 22° 292° (WNW) 23:51:42 437.425
LO-87 23 Mar 23:45:16 23:47:57 20° 265° (W) 23:50:41 145.935 - 145.965
BEESAT 3 23 Mar 23:46:38 23:50:13 34° 305° (NW) 23:53:53 437.485
QB50P2 23 Mar 23:47:43 23:51:27 29° 97° (E) 23:55:09 145.880/145.840
VELOX 1 23 Mar 23:51:58 23:56:12 50° 74° (ENE) 00:00:29 145.980
BEESAT 2 23 Mar 23:54:57 23:58:53 76° 301° (WNW) 00:02:53 435.950
SO-50 24 Mar 00:02:35 00:06:39 32° 53° (NE) 00:10:40 436.795
ESTCUBE 1 24 Mar 00:03:01 00:07:04 34° 262° (W) 00:11:09 437.505/2401.250
DUCHIFAT 1 24 Mar 00:04:32 00:08:24 35° 98° (E) 00:12:13 145.980
FO-29 24 Mar 00:13:21 00:18:43 33° 293° (WNW) 00:23:36 435.910
UKube-1 24 Mar 00:25:47 00:29:38 33° 71° (ENE) 00:33:30 .
BUGSAT 1 24 Mar 00:33:21 00:36:44 23° 96° (E) 00:40:04 437.445
AIST 2D 24 Mar 00:38:25 00:41:25 27° 287° (WNW) 00:44:24 435.315
NANOSAT C BR1 24 Mar 00:48:44 00:52:54 58° 285° (WNW) 00:57:00 145.865
Oscar 19 24 Mar 00:50:47 00:52:32 12° 91° (E) 00:54:17 437.125/150
EO-79 24 Mar 00:51:26 00:55:32 48° 286° (WNW) 00:59:35 145.935-145.965
RS-15 24 Mar 00:52:11 01:00:45 23° 260° (W) 01:09:06 29.354- 29.394
50 SAT 24 Mar 00:56:16 00:59:25 33° 262° (W) 01:02:35 437.505
SPROUT 24 Mar 00:59:31 01:03:17 30° 263° (W) 01:07:05 437.525
DX 1 24 Mar 01:15:16 01:19:23 42° 261° (W) 01:23:32 434.975-435.025
POLYITAN 1 24 Mar 01:19:12 01:22:36 24° 290° (WNW) 01:25:57 437.675
QB50P2 24 Mar 01:23:57 01:27:01 20° 292° (WNW) 01:30:04 145.880/145.840
VELOX 1 24 Mar 01:31:07 01:32:55 12° 268° (W) 01:34:42 145.980
DUCHIFAT 1 24 Mar 01:41:04 01:43:45 17° 293° (WNW) 01:46:26 145.980
SO-50 24 Mar 01:43:22 01:46:54 23° 249° (WSW) 01:50:25 436.795
UKube-1 24 Mar 02:02:46 02:05:42 18° 265° (W) 02:08:39 .
BUGSAT 1 24 Mar 02:08:37 02:11:58 24° 291° (WNW) 02:15:17 437.445
Gurwin Techsat 1B 24 Mar 02:18:02 02:23:15 52° 100° (E) 02:28:24 435.225
Oscar 19 24 Mar 02:27:08 02:32:17 70° 286° (WNW) 02:37:25 437.125/150
BEESAT 24 Mar 02:35:01 02:39:44 63° 74° (ENE) 02:44:28 436.000
ITUPSAT 1 24 Mar 02:49:11 02:53:59 88° 78° (ENE) 02:58:48 437.325
O/OREOS (USA 219) 24 Mar 02:49:52 02:53:47 27° 62° (ENE) 02:57:40 437.305
AO-7 24 Mar 03:06:23 03:12:46 24° 95° (E) 03:19:07 .
ISS 24 Mar 03:17:37 03:19:29 14° 26° (NNE) 03:21:21 437.550
MOZHAYETS 4 24 Mar 03:17:41 03:22:16 69° 75° (ENE) 03:26:50
KKS-1 24 Mar 03:21:57 03:24:38 16° 66° (ENE) 03:27:19 437.445
Tancredo 1 24 Mar 03:30:18 03:32:34 18° 29° (NNE) 03:34:51 437.200
Gurwin Techsat 1B 24 Mar 03:59:13 04:02:43 18° 295° (WNW) 04:06:13 435.225
CUBESAT XI-V 24 Mar 04:02:46 04:06:48 31° 71° (ENE) 04:10:50 437.345
STARS 24 Mar 04:05:30 04:08:45 20° 68° (ENE) 04:12:01 437.465
ITAMSAT 1 24 Mar 04:07:43 04:12:57 86° 283° (WNW) 04:18:07 435.822/435.867
BEESAT 24 Mar 04:16:24 04:17:52 11° 269° (W) 04:19:20 436.000
O/OREOS (USA 219) 24 Mar 04:29:15 04:33:04 26° 258° (WSW) 04:36:50 437.305
ISS 24 Mar 04:53:02 04:56:20 83° 222° (SW) 04:59:38 437.550
KKS-1 24 Mar 04:56:34 05:00:48 43° 261° (W) 05:05:04 437.445
AO-7 24 Mar 04:57:49 05:06:00 66° 291° (WNW) 05:14:09 .
Tancredo 1 24 Mar 05:05:47 05:08:54 49° 226° (SW) 05:12:01 437.200
M-CUBED/EXP-1 PRIME 24 Mar 05:22:55 05:25:59 27° 65° (ENE) 05:29:15 437.505
CUTE-I 24 Mar 05:40:01 05:41:49 12° 91° (E) 05:43:35 437.470
CUBESAT XI-V 24 Mar 05:40:41 05:44:10 21° 265° (W) 05:47:40 437.345
STARS 24 Mar 05:40:56 05:44:51 31° 262° (W) 05:48:49 437.465
LilacSat-2 24 Mar 05:44:34 05:45:27 11° 92° (E) 05:46:20 437.200
AO-85 24 Mar 05:44:43 05:47:27 18° 50° (NE) 05:50:14 145.980
XW-2F 24 Mar 05:48:10 05:49:06 11° 92° (E) 05:50:03 145.980 - 146.000
XW-2D 24 Mar 06:10:26 06:13:30 23° 96° (E) 06:16:32 145.860 - 145.880
XW-2B 24 Mar 06:16:10 06:19:23 27° 97° (E) 06:22:35 145.730 - 145.750
NUDT-PHONESAT 24 Mar 06:19:57 06:22:57 23° 96° (E) 06:25:57 437.300
DOVE 4 24 Mar 06:22:47 06:28:00 54° 99° (E) 06:33:06 437.250
KAITUO 1B 24 Mar 06:23:35 06:26:44 26° 97° (E) 06:29:53 145.475/437.950
XW-2C 24 Mar 06:26:00 06:29:29 37° 98° (E) 06:32:57 145.795 - 145.815
AO-7 24 Mar 06:53:58 06:57:10 13° 311° (NW) 07:00:23 .
M-CUBED/EXP-1 PRIME 24 Mar 06:58:15 07:00:30 16° 262° (W) 07:02:52 437.505
STRAND 1 24 Mar 07:02:18 07:07:21 60° 74° (ENE) 07:12:26 437.568
XW-2A 24 Mar 07:15:08 07:17:24 17° 95° (E) 07:19:39 145.665 - 145.685
LilacSat-2 24 Mar 07:16:22 07:19:54 40° 286° (WNW) 07:23:26 437.200
CUTE-I 24 Mar 07:16:59 07:22:20 73° 286° (WNW) 07:27:37 437.470
XW-2F 24 Mar 07:19:55 07:23:25 39° 286° (WNW) 07:26:53 145.980 - 146.000
SEEDS 24 Mar 07:19:58 07:21:03 11° 91° (E) 07:22:08 437.485
CUTE 1.7 + AOD 2 24 Mar 07:19:59 07:22:55 18° 94° (E) 07:25:51 437.475
AO-85 24 Mar 07:24:18 07:27:54 34° 245° (WSW) 07:31:38 145.980
NO-84 24 Mar 07:30:01 07:32:54 84° 319° (NW) 07:35:44 435.350 FM
XW-2D 24 Mar 07:44:52 07:47:30 18° 290° (WNW) 07:50:08 145.860 - 145.880
YUBILEINY 24 Mar 07:46:12 07:54:47 62° 91° (E) 08:03:20 435.215
XW-2B 24 Mar 07:50:57 07:53:21 16° 291° (WNW) 07:55:44 145.730 - 145.750
HO-68 24 Mar 07:52:44 07:59:40 50° 101° (E) 08:06:34 435.675
NUDT-PHONESAT 24 Mar 07:54:10 07:56:41 18° 290° (WNW) 07:59:12 437.300
KAITUO 1B 24 Mar 07:58:13 08:00:32 16° 291° (WNW) 08:02:50 145.475/437.950
DOVE 4 24 Mar 08:01:43 08:05:10 18° 294° (WNW) 08:08:34 437.250
XW-2C 24 Mar 08:01:45 08:03:19 12° 293° (WNW) 08:04:52 145.795 - 145.815
BEESAT 3 24 Mar 08:05:26 08:09:22 53° 58° (ENE) 08:13:16 437.485
CUBEBUG 2 24 Mar 08:09:57 08:13:52 31° 96° (E) 08:17:39 437.445
BEESAT 2 24 Mar 08:15:23 08:18:51 27° 53° (NE) 08:22:19 435.950
Oscar 11 24 Mar 08:28:03 08:29:45 12° 92° (E) 08:31:28 .
ZACube-1 24 Mar 08:29:42 08:32:24 16° 93° (E) 08:35:04 437.345
FO-29 24 Mar 08:38:59 08:42:44 14° 58° (ENE) 08:46:24 435.910
PCSat 24 Mar 08:39:22 08:39:42 10° 102° (ESE) 08:40:02 145.827
STRAND 1 24 Mar 08:44:18 08:46:52 14° 268° (W) 08:49:28 437.568
AAUSAT CUBESAT 2 24 Mar 08:45:10 08:49:15 57° 101° (E) 08:53:19 437.432
XW-2A 24 Mar 08:47:32 08:50:05 20° 289° (WNW) 08:52:37 145.665 - 145.685
JUGNU 24 Mar 08:48:04 08:50:26 12° 169° (S) 08:52:49 437.505
SEEDS 24 Mar 08:52:56 08:56:59 50° 285° (WNW) 09:01:02 437.485
CUTE 1.7 + AOD 2 24 Mar 08:55:04 08:58:46 31° 288° (WNW) 09:02:28 437.475
TIGRISAT 24 Mar 08:55:48 08:58:31 15° 66° (ENE) 09:01:13 435.000
AO-73 24 Mar 08:58:46 09:02:35 33° 97° (E) 09:06:20 145.935
PRISM 24 Mar 09:03:05 09:06:49 37° 72° (ENE) 09:10:34 437.425
UNISAT 6 24 Mar 09:04:19 09:07:45 21° 68° (ENE) 09:11:12 437.425
UWE-3 24 Mar 09:17:54 09:22:13 68° 284° (WNW) 09:26:23 435.000/436.395/437.385
HO-68 24 Mar 09:41:06 09:47:01 29° 297° (WNW) 09:52:55 435.675
YUBILEINY 24 Mar 09:45:11 09:52:06 26° 290° (WNW) 09:59:02 435.215
BEESAT 3 24 Mar 09:45:31 09:46:27 11° 253° (WSW) 09:47:23 437.485
CUBEBUG 2 24 Mar 09:47:02 09:50:14 20° 292° (WNW) 09:53:22 437.445
BEESAT 2 24 Mar 09:53:16 09:56:29 23° 249° (WSW) 09:59:40 435.950
Oscar 11 24 Mar 10:01:58 10:06:07 48° 286° (WNW) 10:10:15 .
ZACube-1 24 Mar 10:04:58 10:08:46 33° 288° (WNW) 10:12:31 437.345
PCSat 24 Mar 10:16:52 10:22:17 85° 296° (WNW) 10:27:44 145.827
FO-29 24 Mar 10:18:47 10:26:38 76° 74° (ENE) 10:34:11 435.910
AAUSAT CUBESAT 2 24 Mar 10:23:32 10:24:11 10° 295° (WNW) 10:24:50 437.432
DELFI C3 24 Mar 10:27:35 10:31:35 81° 281° (W) 10:35:33 145.870
TIGRISAT 24 Mar 10:30:12 10:34:44 49° 260° (W) 10:39:18 435.000
POLYITAN 1 24 Mar 10:34:31 10:36:47 14° 66° (ENE) 10:39:02 437.675
JUGNU 24 Mar 10:35:10 10:38:39 16° 180° (S) 10:42:08 437.505
AO-73 24 Mar 10:35:47 10:38:32 17° 292° (WNW) 10:41:15 145.935
QB50P2 24 Mar 10:38:27 10:41:12 17° 68° (ENE) 10:43:58 145.880/145.840
UNISAT 6 24 Mar 10:39:53 10:44:11 36° 262° (W) 10:48:30 437.425
PRISM 24 Mar 10:40:02 10:42:13 14° 266° (W) 10:44:25 437.425
SRMSAT 24 Mar 10:47:38 10:48:34 10° 166° (SSE) 10:49:31 437.500
RS-15 24 Mar 10:52:09 10:57:11 14° 95° (E) 11:02:16 29.354- 29.394
DUCHIFAT 1 24 Mar 10:54:14 10:57:16 19° 68° (ENE) 11:00:18 145.980
AIST 2D 24 Mar 11:09:25 11:12:54 61° 77° (ENE) 11:16:25 435.315
LO-87 24 Mar 11:14:01 11:17:23 34° 98° (E) 11:20:43 145.935 - 145.965
BUGSAT 1 24 Mar 11:21:46 11:23:38 13° 65° (ENE) 11:25:32 437.445
NANOSAT C BR1 24 Mar 11:37:31 11:41:45 70° 76° (ENE) 11:46:01 145.865
EO-79 24 Mar 11:40:27 11:44:43 84° 78° (ENE) 11:49:02 145.935-145.965
VELOX 1 24 Mar 11:46:43 11:48:19 12° 92° (E) 11:49:55 145.980
ESTCUBE 1 24 Mar 11:57:27 12:01:55 59° 101° (E) 12:06:21 437.505/2401.250
PCSat 24 Mar 12:04:10 12:06:28 13° 315° (NW) 12:08:48 145.827
Oscar 19 24 Mar 12:04:57 12:07:36 14° 63° (ENE) 12:10:15 437.125/150
FO-29 24 Mar 12:06:41 12:12:04 20° 269° (W) 12:17:21 435.910
POLYITAN 1 24 Mar 12:08:03 12:12:09 44° 261° (W) 12:16:16 437.675
QB50P2 24 Mar 12:12:44 12:16:41 36° 262° (W) 12:20:39 145.880/145.840
50 SAT 24 Mar 12:23:39 12:25:58 17° 95° (E) 12:28:17 437.505
JUGNU 24 Mar 12:24:16 12:26:52 13° 190° (S) 12:29:28 437.505
DUCHIFAT 1 24 Mar 12:28:55 12:32:41 31° 263° (W) 12:36:30 145.980
SRMSAT 24 Mar 12:33:30 12:36:56 16° 176° (S) 12:40:22 437.500
SPROUT 24 Mar 12:47:13 12:51:26 53° 100° (E) 12:55:35 437.525
LO-87 24 Mar 12:48:54 12:50:29 12° 292° (WNW) 12:52:04 145.935 - 145.965
BUGSAT 1 24 Mar 12:54:27 12:58:31 48° 260° (W) 13:02:39 437.445
RS-15 24 Mar 12:55:32 13:07:19 72° 114° (ESE) 13:19:34 29.354- 29.394
DX 1 24 Mar 13:05:51 13:09:57 38° 99° (E) 13:14:02 434.975-435.025
VELOX 1 24 Mar 13:20:41 13:25:02 54° 286° (WNW) 13:29:23 145.980
Gurwin Techsat 1B 24 Mar 13:36:21 13:41:36 64° 74° (ENE) 13:46:52 435.225
ESTCUBE 1 24 Mar 13:36:28 13:38:10 12° 295° (WNW) 13:39:52 437.505/2401.250
Oscar 19 24 Mar 13:41:17 13:46:20 63° 258° (WSW) 13:51:26 437.125/150
ITAMSAT 1 24 Mar 13:47:05 13:49:19 13° 62° (ENE) 13:51:33 435.822/435.867
UKube-1 24 Mar 13:50:38 13:54:59 90° 106° (ESE) 13:59:19 .
50 SAT 24 Mar 13:56:10 13:58:57 22° 289° (WNW) 14:01:44 437.505
AO-7 24 Mar 14:02:47 14:09:32 29° 59° (ENE) 14:16:16 .
NO-84 24 Mar 14:05:59 14:08:16 17° 37° (NE) 14:10:40 435.350 FM
SO-50 24 Mar 14:15:03 14:18:22 19° 110° (ESE) 14:21:39 436.795
SRMSAT 24 Mar 14:22:07 14:25:20 15° 187° (S) 14:28:32 437.500
SPROUT 24 Mar 14:25:14 14:26:50 12° 295° (WNW) 14:28:26 437.525
BEESAT 24 Mar 14:38:41 14:42:06 19° 94° (E) 14:45:30 436.000
DX 1 24 Mar 14:42:58 14:45:49 17° 293° (WNW) 14:48:39 434.975-435.025
ITUPSAT 1 24 Mar 14:52:49 14:56:51 27° 97° (E) 15:00:51 437.325
RS-15 24 Mar 15:10:03 15:20:51 36° 318° (NW) 15:31:59 29.354- 29.394
MOZHAYETS 4 24 Mar 15:16:14 15:19:30 19° 94° (E) 15:22:45
Gurwin Techsat 1B 24 Mar 15:19:24 15:21:56 13° 269° (W) 15:24:28 435.225
ITAMSAT 1 24 Mar 15:22:53 15:28:06 74° 257° (WSW) 15:33:21 435.822/435.867
NO-84 24 Mar 15:42:41 15:45:56 42° 230° (SW) 15:49:27 435.350 FM
AO-7 24 Mar 15:53:31 16:01:43 61° 256° (WSW) 16:09:57 .
SO-50 24 Mar 15:54:08 15:58:31 40° 305° (NW) 16:02:53 436.795
BEESAT 24 Mar 16:15:35 16:19:57 37° 289° (WNW) 16:24:18 436.000
ITUPSAT 1 24 Mar 16:30:35 16:34:34 27° 291° (WNW) 16:38:32 437.325
KKS-1 24 Mar 16:49:53 16:54:10 42° 99° (E) 16:58:23 437.445
MOZHAYETS 4 24 Mar 16:52:36 16:56:43 34° 288° (WNW) 17:00:48
CUTE-I 24 Mar 16:58:35 17:01:52 17° 64° (ENE) 17:05:10 437.470
O/OREOS (USA 219) 24 Mar 16:58:57 17:03:17 49° 106° (ESE) 17:07:40 437.305
XW-2C 24 Mar 17:06:09 17:08:03 13° 68° (ENE) 17:09:57 145.795 - 145.815
DOVE 4 24 Mar 17:25:33 17:29:45 37° 71° (ENE) 17:34:12 437.250
RS-15 24 Mar 17:31:57 17:38:48 16° 351° (N) 17:45:39 29.354- 29.394
STARS 24 Mar 17:32:16 17:36:37 54° 101° (E) 17:40:55 437.465
CUBESAT XI-V 24 Mar 17:38:19 17:42:58 72° 284° (WNW) 17:47:36 437.345
LilacSat-2 24 Mar 17:54:58 17:58:46 60° 75° (ENE) 18:02:32 437.200
XW-2F 24 Mar 17:57:36 18:01:21 59° 76° (ENE) 18:05:05 145.980 - 146.000
YUBILEINY 24 Mar 18:00:29 18:07:29 26° 70° (ENE) 18:14:26 435.215
HO-68 24 Mar 18:19:13 18:25:07 29° 63° (ENE) 18:30:59 435.675
XW-2D 24 Mar 18:22:09 18:25:54 57° 260° (W) 18:29:39 145.860 - 145.880
KKS-1 24 Mar 18:27:35 18:30:20 16° 294° (WNW) 18:33:04 437.445
XW-2B 24 Mar 18:28:05 18:31:47 49° 260° (W) 18:35:30 145.730 - 145.750
NUDT-PHONESAT 24 Mar 18:29:32 18:33:14 59° 259° (W) 18:36:57 437.300
KAITUO 1B 24 Mar 18:34:08 18:37:47 51° 260° (W) 18:41:28 145.475/437.950
CUTE-I 24 Mar 18:36:07 18:41:23 58° 259° (W) 18:46:42 437.470
M-CUBED/EXP-1 PRIME 24 Mar 18:37:06 18:41:25 38° 103° (ESE) 18:45:45 437.505
XW-2C 24 Mar 18:38:23 18:41:55 35° 262° (W) 18:45:26 145.795 - 145.815
O/OREOS (USA 219) 24 Mar 18:40:24 18:42:59 15° 303° (WNW) 18:45:34 437.305
DOVE 4 24 Mar 19:04:21 19:07:34 19° 268° (W) 19:10:57 437.250
CUBEBUG 2 24 Mar 19:05:19 19:08:52 21° 68° (ENE) 19:12:26 437.445
PCSat 24 Mar 19:07:32 19:12:42 43° 58° (ENE) 19:17:51 145.827
STARS 24 Mar 19:10:35 19:12:27 13° 296° (WNW) 19:14:18 437.465
XW-2A 24 Mar 19:15:08 19:18:34 78° 77° (ENE) 19:22:02 145.665 - 145.685
STRAND 1 24 Mar 19:16:08 19:20:17 25° 96° (E) 19:24:26 437.568
ZACube-1 24 Mar 19:24:18 19:25:41 11° 65° (ENE) 19:27:04 437.345
AAUSAT CUBESAT 2 24 Mar 19:32:56 19:36:20 26° 71° (ENE) 19:39:44 437.432
SEEDS 24 Mar 19:41:22 19:45:30 74° 77° (ENE) 19:49:40 437.485
CUTE 1.7 + AOD 2 24 Mar 19:44:12 19:48:22 63° 259° (W) 19:52:33 437.475
RS-15 24 Mar 19:49:07 19:58:14 23° 28° (NNE) 20:07:07 29.354- 29.394
AO-73 24 Mar 19:51:44 19:55:07 21° 69° (ENE) 19:58:29 145.935
YUBILEINY 24 Mar 19:56:15 20:04:45 61° 269° (W) 20:13:15 435.215
ISS 24 Mar 19:57:07 19:57:58 11° 126° (SE) 19:58:49 437.550
AO-85 24 Mar 19:58:43 20:00:00 11° 109° (ESE) 20:01:14 145.980
Tancredo 1 24 Mar 20:05:29 20:07:25 15° 129° (SE) 20:09:21 437.200
HO-68 24 Mar 20:05:34 20:12:27 50° 259° (W) 20:19:22 435.675
UWE-3 24 Mar 20:11:12 20:15:51 68° 76° (ENE) 20:20:28 435.000/436.395/437.385
M-CUBED/EXP-1 PRIME 24 Mar 20:12:05 20:15:33 21° 297° (WNW) 20:19:03 437.505
CUBEBUG 2 24 Mar 20:40:53 20:45:13 35° 263° (W) 20:49:34 437.445
PCSat 24 Mar 20:51:38 20:55:47 23° 254° (WSW) 20:59:55 145.827
Oscar 11 24 Mar 20:53:26 20:57:46 89° 71° (ENE) 21:02:06 .
STRAND 1 24 Mar 20:54:54 20:59:27 33° 291° (WNW) 21:03:58 437.568
ZACube-1 24 Mar 20:56:51 21:01:23 65° 259° (W) 21:05:53 437.345
AAUSAT CUBESAT 2 24 Mar 21:08:39 21:11:44 21° 265° (W) 21:14:50 437.432
DELFI C3 24 Mar 21:10:23 21:13:58 36° 73° (ENE) 21:17:34 145.870
AO-73 24 Mar 21:27:03 21:31:07 32° 263° (W) 21:35:11 145.935
ISS 24 Mar 21:30:49 21:34:02 59° 321° (NW) 21:37:16 437.550
AO-85 24 Mar 21:35:31 21:39:58 61° 301° (WNW) 21:44:08 145.980
Tancredo 1 24 Mar 21:40:18 21:43:18 39° 324° (NW) 21:46:20 437.200
UWE-3 24 Mar 21:52:17 21:52:39 10° 270° (W) 21:53:01 435.000/436.395/437.385
BEESAT 3 24 Mar 21:54:02 21:56:30 16° 109° (ESE) 21:59:00 437.485
RS-15 24 Mar 22:01:28 22:13:43 67° 56° (NE) 22:25:21 29.354- 29.394
PRISM 24 Mar 22:21:35 22:25:45 89° 282° (WNW) 22:29:56 437.425
TIGRISAT 24 Mar 22:24:35 22:28:45 40° 98° (E) 22:32:48 435.000
UNISAT 6 24 Mar 22:34:00 22:38:23 58° 101° (E) 22:42:37 437.425
